* Astronomy

Members Login
Post Info TOPIC: Asteroid 2013 LD16


L

Posts: 131433
Date:
Asteroid 2013 LD16
Permalink  
 


Orbital elements:
2013 LD16
Epoch 2013 May 28.0 TT = JDT 2456440.5                  MPC
M 359.59422              (2000.0)            P               Q
n   0.00293016     Peri.  185.10346     -0.93323409     -0.30882793
a  48.3661853      Node    25.56944     -0.31273998     +0.94980517
e   0.9471157      Incl.  154.82850     -0.17682714     -0.04995441
P 336              H   16.5           G   0.15
From 26 observations 2013 June 6-10.

MPEC 2013 - L47

Key to Orbital elements

Ed ~ 1 - 3 km wide



__________________
Page 1 of 1  sorted by
Quick Reply

Please log in to post quick replies.



Create your own FREE Forum
Report Abuse
Powered by ActiveBoard